sat.trackr.live / text

‹ back to catalog

STARLINK-5807

NORAD 55791 · 2023-028BC

PAYLOAD ACTIVE UNKNOWN

§ Identity

Operator
Country
US
Launch date
2023-03-03
Launch site
AFWTR
Launch vehicle
Mass (kg)
RCS (m²)

Purposes: comms

External: N2YO · Heavens-Above · Gunter

§ Orbital elements

Epoch: 2026-09-20T22:00:03.000096Z

Period
95.67 min
Inclination
70.0011°
Eccentricity
0.0005503
Mean motion
15.05208983 rev/d
Perigee alt
547.1 km
Apogee alt
554.7 km
Semi-major
6,929.0 km
B*
5.6844e-3
RAAN
72.2180°
Arg perigee
264.4208°
Mean anomaly
306.5263°
Rev number
576

§ Raw data

STARLINK-58071 55791U 23028BC  26263.91670139  .00082149  00000+0  56844-2 0  99992 55791  70.0011  72.2180 0005503 264.4208 306.5263 15.05208983  5761

JSON: /api/v1/satellites/55791 · /tle

For live sub-satellite position, see the globe view (requires WebGL).

§ Visibility from observer

Set your observer location to see the next 7 days of passes ≥ 10°. The values pass through the URL so the page stays shareable.

No JS? Fill the form by hand. The geolocation button needs JavaScript.